Location: *
(37.9500°N, 27.3666°E)
Time: 15:20:12
(UTC+00:00)

Cosmos 2360 Rocket - Pass Details

Date: 24 October 2021
Orbit: 832 x 846 km, 71.0° (Epoch: 07 December)

Event Time Altitude Azimuth Distance (km) Brightness Sun altitude
Rises 16:29:07 0° 192° (SSW) 3,368 5.5 -14.1°
Reaches altitude 10° 16:31:33 10° 189° (S) 2,440 4.8 -14.6°
Maximum altitude 16:37:05 64° 109° (ESE) 925 2.1 -15.6°
Drops below altitude 10° 16:42:40 10° 29° (NNE) 2,465 4.3 -16.7°
Enters shadow 16:44:40 - 26° (NNE) 3,230 5.0 -17.1°
